Miscellaneous Local Product
Issued by NWS Hastings, NE

Home | Current Version | Previous Version | Graphics & Text | Print | Product List | Glossary On
Versions: 1 2 3 4 5 6 7 8 9 10 11 12 13 14 15 16 17 18 19 20 21 22 23 24 25 26 27 28 29 30 31 32 33 34 35 36 37 38 39 40 41 42 43 44 45 46 47 48 49 50
000
AXUS43 KGID 161602
MISGRI

GID CWA HOURLY WEATHER ROUNDUP
NATIONAL WEATHER SERVICE HASTINGS NE
1100 AM CDT TUE SEP 16 2014

NOTE: "FAIR" INDICATES FEW OR NO CLOUDS BELOW 12,000 FEET WITH NO
SIGNIFICANT WEATHER AND/OR OBSTRUCTIONS TO VISIBILITY.

...SOUTH CENTRAL NEBRASKA...

CITY           SKY/WX    TMP DP  RH WIND       PRES   REMARKS
GRAND ISLAND   SUNNY     59  48  67 S14       30.19F
HASTINGS       SUNNY     59  48  67 S10G18    30.19S
KEARNEY        MOSUNNY   57  48  72 SE12      30.18F
ORD            SUNNY     59  49  69 S15       30.13F
YORK           SUNNY     57  48  72 SW13      30.22R
AURORA         SUNNY     58  46  64 S12       30.20S
LEXINGTON      CLOUDY    55  51  85 S14       30.15F
HOLDREGE       CLOUDY    56  49  79 S9        30.17F
HEBRON         SUNNY     61  47  60 S7        30.21F

...NEBRASKA PANHANDLE...

CITY           SKY/WX    TMP DP  RH WIND       PRES   REMARKS
CHADRON        SUNNY     66  48  52 NW8       30.06S
ALLIANCE       SUNNY     65  53  65 W6        30.07S
SCOTTSBLUFF    SUNNY     63  52  67 NW12      30.10S
SIDNEY         SUNNY     70  53  54 VRB7      30.10F

...WESTERN AND NORTH CENTRAL NEBRASKA...

CITY           SKY/WX    TMP DP  RH WIND       PRES   REMARKS
VALENTINE      SUNNY     63  49  60 SW14      30.04F
AINSWORTH      SUNNY     64  51  63 S14       30.07S
ONEILL         SUNNY     61  50  67 S18       30.11F
BROKEN BOW     MOSUNNY   61  50  67 S21G32    30.11F
IMPERIAL       MOSUNNY   66  54  65 S15G24    30.09F
NORTH PLATTE   PTSUNNY   62  52  69 S9G26     30.09F
MCCOOK         CLOUDY    62  53  72 S10       30.14F

...EASTERN NEBRASKA...

CITY           SKY/WX    TMP DP  RH WIND       PRES   REMARKS
NORFOLK        SUNNY     59  46  62 S14G21    30.18F
SO SIOUX CITY  SUNNY     60  45  57 S15G22    30.20F
TEKAMAH        SUNNY     60  45  57 S14       30.21F
ALBION         SUNNY     57  46  66 S15       30.18F
OMAHA EPPLEY   MOSUNNY   59  47  64 S10       30.22F
OFFUTT AFB     SUNNY     59  56  88 S6        30.22F
MILLARD        SUNNY     60  48  65 S9        30.21F
LINCOLN        SUNNY     60  47  61 S12       30.22F
NEBRASKA CITY  MOSUNNY   58  43  56 S8        30.23F
BEATRICE       SUNNY     59  49  68 S8        30.22F
FALLS CITY     SUNNY     61  50  67 VRB3      30.22F

...NORTHERN KANSAS...

CITY           SKY/WX    TMP DP  RH WIND       PRES   REMARKS
GOODLAND       MOSUNNY   64  54  69 S15G22    30.16S
HILL CITY      CLOUDY    59  52  77 S7        30.18F
NORTON         CLOUDY    57  48  72 SE12G20   30.16S
PHILLIPSBURG   CLOUDY    59  50  72 S8        30.17F
SMITH CENTER   SUNNY     59  48  67 SE17      30.18F
BELOIT         CLOUDY    61  52  72 S6        30.19F
HAYS           CLOUDY    57  48  72 SE12      30.19F
RUSSELL        CLOUDY    58  50  75 SE10      30.19F
CONCORDIA      SUNNY     61  52  72 SE10      30.20F
SALINA         CLOUDY    58  51  78 SE7       30.21F
TOPEKA         SUNNY     62  52  69 VRB3      30.23F



USA.gov is the U.S. government's official web portal to all federal, state and local government web resources and services.